PIMOHWEATHER Station Historical Data
Daily Summary for June 28, 2020 Units:  Metric    English   Both
Daily Weekly Monthly Yearly
  High: Low: Average:
Temperature: 34.0 °C 26.0 °C 28.4 °C
Dew Point: 27.0 °C 25.0 °C 25.8 °C
Humidity: 97% 68% 87%
Wind Speed: 25km/h 0km/h 4.1km/h
Wind Gust: 32km/h - -
Wind- - SSE
Pressure: 1009.5 hPa 1005.8 hPa -
Precipitation: 9.40 mm    
 
 
Tabular Data for June 28, 2020
Time Temperature Dew Point Pressure Wind Wind Speed Wind Gust Humidity Rainfall Rate (Hourly) solar
00:04 29.0 °C 26.0 °C 1008.7 hPa East 11 km/h 16 km/h 84% 0.00 mm 0.00 W/m2
00:09 29.0 °C 26.0 °C 1008.6 hPa East 8 km/h 16 km/h 84% 0.00 mm 0.00 W/m2
00:14 29.0 °C 26.0 °C 1008.5 hPa SE 9 km/h 12 km/h 85% 0.00 mm 0.00 W/m2
00:19 29.0 °C 26.0 °C 1008.4 hPa Calm     86% 0.00 mm 0.00 W/m2
00:24 28.0 °C 26.0 °C 1008.4 hPa SE 17 km/h 24 km/h 86% 0.00 mm 0.00 W/m2
00:29 28.0 °C 26.0 °C 1008.3 hPa SE 21 km/h 24 km/h 88% 0.00 mm 0.00 W/m2
00:34 28.0 °C 26.0 °C 1008.1 hPa ESE 9 km/h 12 km/h 88% 0.00 mm 0.00 W/m2
00:39 28.0 °C 26.0 °C 1008.2 hPa East 5 km/h 8 km/h 88% 0.00 mm 0.00 W/m2
00:44 28.0 °C 26.0 °C 1008.2 hPa ESE 8 km/h 12 km/h 88% 0.00 mm 0.00 W/m2
00:49 28.0 °C 26.0 °C 1008.1 hPa SE 9 km/h 16 km/h 89% 0.00 mm 0.00 W/m2
00:53 28.0 °C 26.0 °C 1008.1 hPa SE 10 km/h 12 km/h 89% 0.00 mm 0.00 W/m2
01:04 28.0 °C 26.0 °C 1007.9 hPa ESE 3 km/h 4 km/h 89% 0.00 mm 0.00 W/m2
01:09 28.0 °C 26.0 °C 1007.9 hPa SE 6 km/h 8 km/h 88% 0.00 mm 0.00 W/m2
01:14 28.0 °C 26.0 °C 1007.9 hPa ESE 10 km/h 16 km/h 91% 1.80 mm 0.00 W/m2
01:19 27.0 °C 26.0 °C 1007.9 hPa ESE 7 km/h 8 km/h 92% 3.61 mm 0.00 W/m2
01:24 27.0 °C 26.0 °C 1007.9 hPa Calm     93% 5.41 mm 0.00 W/m2
01:29 27.0 °C 26.0 °C 1007.8 hPa Calm     94% 5.41 mm 0.00 W/m2
01:34 27.0 °C 26.0 °C 1007.9 hPa Calm     94% 5.41 mm 0.00 W/m2
01:39 27.0 °C 26.0 °C 1008.0 hPa Calm     95% 7.19 mm 0.00 W/m2
01:44 26.0 °C 26.0 °C 1007.9 hPa Calm     95% 7.19 mm 0.00 W/m2
01:49 26.0 °C 26.0 °C 1007.7 hPa Calm   4 km/h 96% 5.41 mm 0.00 W/m2
01:54 26.0 °C 25.0 °C 1007.7 hPa Calm     96% 3.61 mm 0.00 W/m2
01:59 26.0 °C 25.0 °C 1007.6 hPa Calm     96% 3.61 mm 0.00 W/m2
02:04 26.0 °C 25.0 °C 1007.6 hPa Calm     96% 1.80 mm 0.00 W/m2
02:09 26.0 °C 25.0 °C 1007.5 hPa Calm     96% 1.78 mm 0.00 W/m2
02:14 26.0 °C 26.0 °C 1007.5 hPa Calm     96% 3.56 mm 0.00 W/m2
02:19 26.0 °C 25.0 °C 1007.5 hPa Calm     96% 3.56 mm 0.00 W/m2
02:24 26.0 °C 26.0 °C 1007.8 hPa Calm     96% 3.56 mm 0.00 W/m2
02:29 26.0 °C 25.0 °C 1007.8 hPa Calm     96% 3.56 mm 0.00 W/m2
02:34 26.0 °C 25.0 °C 1007.8 hPa Calm     96% 3.56 mm 0.00 W/m2
02:36 26.0 °C 25.0 °C 1007.8 hPa Calm     96% 1.78 mm 0.00 W/m2
02:49 26.0 °C 26.0 °C 1007.8 hPa Calm     97% 0.00 mm 0.00 W/m2
02:54 26.0 °C 26.0 °C 1008.0 hPa Calm     97% 0.00 mm 0.00 W/m2
02:59 26.0 °C 26.0 °C 1007.9 hPa Calm     97% 0.00 mm 0.00 W/m2
03:04 26.0 °C 26.0 °C 1008.0 hPa Calm     97% 0.00 mm 0.00 W/m2
03:09 26.0 °C 26.0 °C 1007.9 hPa Calm     97% 0.00 mm 0.00 W/m2
03:14 26.0 °C 26.0 °C 1007.7 hPa Calm     97% 0.00 mm 0.00 W/m2
03:19 26.0 °C 26.0 °C 1007.9 hPa Calm     97% 0.00 mm 0.00 W/m2
03:24 26.0 °C 26.0 °C 1007.9 hPa Calm     97% 0.00 mm 0.00 W/m2
03:34 26.0 °C 25.0 °C 1007.9 hPa Calm     96% 0.00 mm 0.00 W/m2
03:39 26.0 °C 25.0 °C 1007.9 hPa Calm     96% 0.00 mm 0.00 W/m2
03:44 26.0 °C 25.0 °C 1008.0 hPa Calm   4 km/h 96% 0.00 mm 0.00 W/m2
03:49 26.0 °C 26.0 °C 1007.9 hPa Calm     96% 0.00 mm 0.00 W/m2
03:54 26.0 °C 25.0 °C 1008.0 hPa Calm     96% 0.00 mm 0.00 W/m2
03:59 26.0 °C 25.0 °C 1008.0 hPa Calm     95% 0.00 mm 0.00 W/m2
04:04 26.0 °C 25.0 °C 1007.8 hPa Calm     95% 0.00 mm 0.00 W/m2
04:09 26.0 °C 25.0 °C 1008.0 hPa Calm     95% 0.00 mm 0.00 W/m2
04:14 26.0 °C 25.0 °C 1008.0 hPa Calm     95% 0.00 mm 0.00 W/m2
04:19 26.0 °C 25.0 °C 1008.0 hPa Calm     94% 0.00 mm 0.00 W/m2
04:29 26.0 °C 25.0 °C 1007.8 hPa Calm     93% 0.00 mm 0.00 W/m2
04:34 26.0 °C 25.0 °C 1007.8 hPa Calm     93% 0.00 mm 0.00 W/m2
04:39 26.0 °C 25.0 °C 1007.8 hPa Calm     93% 0.00 mm 0.00 W/m2
04:44 27.0 °C 25.0 °C 1008.1 hPa Calm     93% 0.00 mm 0.00 W/m2
04:49 27.0 °C 26.0 °C 1008.5 hPa Calm     93% 0.00 mm 0.00 W/m2
04:54 27.0 °C 26.0 °C 1008.5 hPa Calm     93% 0.00 mm 0.00 W/m2
04:59 27.0 °C 26.0 °C 1008.5 hPa Calm     93% 0.00 mm 0.00 W/m2
05:04 27.0 °C 26.0 °C 1008.5 hPa Calm     93% 0.00 mm 0.00 W/m2
05:09 27.0 °C 26.0 °C 1008.5 hPa Calm     93% 0.00 mm 0.00 W/m2
05:14 27.0 °C 26.0 °C 1008.5 hPa Calm     93% 0.00 mm 0.00 W/m2
05:19 27.0 °C 26.0 °C 1008.5 hPa Calm     93% 0.00 mm 0.00 W/m2
05:24 27.0 °C 26.0 °C 1008.5 hPa Calm     93% 0.00 mm 0.00 W/m2
05:29 27.0 °C 26.0 °C 1008.5 hPa Calm     93% 0.00 mm 0.00 W/m2
05:34 27.0 °C 26.0 °C 1008.5 hPa Calm     93% 0.00 mm 0.00 W/m2
05:39 27.0 °C 26.0 °C 1008.5 hPa Calm     93% 0.00 mm 0.00 W/m2
05:44 27.0 °C 26.0 °C 1008.5 hPa Calm     93% 0.00 mm 0.47 W/m2
05:49 27.0 °C 26.0 °C 1008.5 hPa Calm     93% 0.00 mm 2.26 W/m2
05:54 27.0 °C 26.0 °C 1008.1 hPa Calm     93% 0.00 mm 4.23 W/m2
05:59 27.0 °C 26.0 °C 1008.1 hPa Calm     93% 0.00 mm 5.75 W/m2
06:04 27.0 °C 26.0 °C 1008.1 hPa Calm     93% 0.00 mm 7.52 W/m2
06:05 27.0 °C 26.0 °C 1008.1 hPa Calm     93% 0.00 mm 7.92 W/m2
06:14 27.0 °C 26.0 °C 1008.5 hPa Calm     93% 0.00 mm 11.30 W/m2
06:19 27.0 °C 26.0 °C 1008.1 hPa Calm     93% 0.00 mm 13.50 W/m2
06:24 27.0 °C 26.0 °C 1008.1 hPa Calm     93% 0.00 mm 17.01 W/m2
06:29 27.0 °C 26.0 °C 1008.5 hPa Calm     92% 0.00 mm 19.79 W/m2
06:34 27.0 °C 26.0 °C 1008.5 hPa Calm     92% 0.00 mm 23.49 W/m2
06:39 27.0 °C 25.0 °C 1008.5 hPa Calm     91% 0.00 mm 27.82 W/m2
06:44 27.0 °C 25.0 °C 1008.5 hPa Calm     91% 0.00 mm 33.04 W/m2
06:49 27.0 °C 25.0 °C 1008.5 hPa Calm     91% 0.00 mm 38.62 W/m2
06:54 27.0 °C 25.0 °C 1008.5 hPa Calm     91% 0.00 mm 44.67 W/m2
06:59 27.0 °C 25.0 °C 1008.8 hPa Calm     90% 0.00 mm 50.30 W/m2
07:04 27.0 °C 25.0 °C 1008.8 hPa Calm     89% 0.00 mm 55.24 W/m2
07:09 27.0 °C 25.0 °C 1008.8 hPa Calm     89% 0.00 mm 59.94 W/m2
07:14 28.0 °C 26.0 °C 1008.8 hPa Calm     89% 0.00 mm 62.13 W/m2
07:19 28.0 °C 25.0 °C 1008.8 hPa Calm     88% 0.00 mm 64.32 W/m2
07:29 28.0 °C 25.0 °C 1008.8 hPa Calm     88% 0.00 mm 57.08 W/m2
07:34 28.0 °C 25.0 °C 1008.8 hPa Calm     87% 0.00 mm 57.90 W/m2
07:39 28.0 °C 25.0 °C 1008.8 hPa Calm     87% 0.00 mm 63.27 W/m2
07:44 28.0 °C 25.0 °C 1008.8 hPa Calm     87% 0.00 mm 69.81 W/m2
07:49 28.0 °C 25.0 °C 1009.1 hPa Calm     87% 0.00 mm 74.19 W/m2
07:54 28.0 °C 25.0 °C 1009.1 hPa Calm     87% 0.00 mm 76.26 W/m2
07:59 28.0 °C 25.0 °C 1009.1 hPa Calm     87% 0.00 mm 79.39 W/m2
08:04 28.0 °C 25.0 °C 1009.0 hPa Calm     87% 0.00 mm 88.86 W/m2
08:09 28.0 °C 25.0 °C 1009.0 hPa Calm     87% 0.00 mm 95.64 W/m2
08:14 28.0 °C 25.0 °C 1008.9 hPa Calm     86% 0.00 mm 106.23 W/m2
08:19 28.0 °C 26.0 °C 1008.9 hPa Calm     86% 0.00 mm 112.40 W/m2
08:24 28.0 °C 25.0 °C 1008.8 hPa Calm     85% 0.00 mm 118.27 W/m2
08:29 28.0 °C 25.0 °C 1009.1 hPa Calm     85% 0.00 mm 121.01 W/m2
08:34 28.0 °C 25.0 °C 1009.1 hPa Calm     86% 0.00 mm 129.11 W/m2
08:38 28.0 °C 25.0 °C 1008.8 hPa Calm     85% 0.00 mm 137.31 W/m2
08:41 28.0 °C 25.0 °C 1008.9 hPa Calm     84% 0.00 mm 141.42 W/m2
08:49 29.0 °C 26.0 °C 1008.9 hPa Calm     84% 0.00 mm 162.85 W/m2
08:54 29.0 °C 26.0 °C 1009.1 hPa Calm     83% 0.00 mm 180.34 W/m2
08:59 29.0 °C 26.0 °C 1009.1 hPa Calm     83% 0.00 mm 201.65 W/m2
09:04 29.0 °C 26.0 °C 1008.8 hPa Calm     83% 0.00 mm 242.88 W/m2
09:09 30.0 °C 26.0 °C 1008.8 hPa Calm     83% 0.00 mm 271.83 W/m2
09:14 30.0 °C 26.0 °C 1009.1 hPa Calm     80% 0.00 mm 312.17 W/m2
09:19 30.0 °C 26.0 °C 1008.8 hPa Calm     79% 0.00 mm 309.58 W/m2
09:24 30.0 °C 26.0 °C 1008.9 hPa SSE 1 km/h 4 km/h 79% 0.00 mm 284.11 W/m2
09:29 30.0 °C 26.0 °C 1008.9 hPa ESE 3 km/h 4 km/h 80% 0.00 mm 256.73 W/m2
09:34 30.0 °C 26.0 °C 1009.0 hPa Calm     78% 0.00 mm 245.30 W/m2
09:39 30.0 °C 26.0 °C 1009.1 hPa Calm     79% 0.00 mm 210.58 W/m2
09:44 30.0 °C 26.0 °C 1009.1 hPa Calm     79% 0.00 mm 177.63 W/m2
09:49 30.0 °C 26.0 °C 1009.0 hPa Calm     80% 0.00 mm 172.76 W/m2
09:54 30.0 °C 26.0 °C 1009.1 hPa East 5 km/h 8 km/h 80% 0.00 mm 180.10 W/m2
09:59 30.0 °C 26.0 °C 1008.9 hPa Calm     80% 0.00 mm 181.30 W/m2
10:04 30.0 °C 26.0 °C 1008.8 hPa North 1 km/h 4 km/h 79% 0.00 mm 171.95 W/m2
10:09 30.0 °C 26.0 °C 1008.6 hPa North 3 km/h 4 km/h 80% 0.00 mm 155.24 W/m2
10:14 30.0 °C 26.0 °C 1008.8 hPa Calm     80% 0.00 mm 121.99 W/m2
10:19 30.0 °C 26.0 °C 1008.7 hPa SE 1 km/h 4 km/h 79% 0.00 mm 122.94 W/m2
10:24 29.0 °C 25.0 °C 1008.6 hPa Calm     79% 0.00 mm 141.86 W/m2
10:29 30.0 °C 26.0 °C 1008.6 hPa East 2 km/h 4 km/h 79% 0.00 mm 143.32 W/m2
10:34 30.0 °C 26.0 °C 1008.6 hPa Calm     79% 0.00 mm 146.21 W/m2
10:39 30.0 °C 26.0 °C 1008.6 hPa ESE 1 km/h 4 km/h 80% 0.00 mm 135.18 W/m2
10:44 30.0 °C 26.0 °C 1008.5 hPa SE 1 km/h 4 km/h 80% 0.00 mm 95.47 W/m2
10:49 29.0 °C 26.0 °C 1008.5 hPa SE 12 km/h 16 km/h 84% 0.00 mm 70.72 W/m2
10:54 29.0 °C 26.0 °C 1008.4 hPa SSE 9 km/h 12 km/h 88% 3.61 mm 94.90 W/m2
10:59 28.0 °C 26.0 °C 1008.5 hPa ESE 10 km/h 12 km/h 90% 10.80 mm 138.63 W/m2
11:04 28.0 °C 26.0 °C 1008.5 hPa Calm     91% 10.80 mm 185.90 W/m2
11:09 28.0 °C 26.0 °C 1008.2 hPa Calm     91% 8.99 mm 229.01 W/m2
11:14 28.0 °C 26.0 °C 1008.2 hPa Calm   4 km/h 90% 1.80 mm 297.49 W/m2
11:19 29.0 °C 26.0 °C 1008.1 hPa Calm   4 km/h 89% 0.00 mm 346.45 W/m2
11:24 29.0 °C 27.0 °C 1008.0 hPa Calm     88% 0.00 mm 352.25 W/m2
11:29 30.0 °C 26.0 °C 1008.0 hPa SE 6 km/h 12 km/h 85% 0.00 mm 331.97 W/m2
11:34 30.0 °C 26.0 °C 1007.8 hPa SE 6 km/h 12 km/h 81% 0.00 mm 415.42 W/m2
11:39 30.0 °C 26.0 °C 1007.9 hPa NNW 5 km/h 8 km/h 79% 0.00 mm 457.07 W/m2
11:44 30.0 °C 26.0 °C 1007.8 hPa North 4 km/h 4 km/h 79% 0.00 mm 601.28 W/m2
11:49 31.0 °C 26.0 °C 1007.7 hPa Calm     79% 0.00 mm 659.49 W/m2
11:54 31.0 °C 27.0 °C 1007.8 hPa SSE 4 km/h 8 km/h 77% 0.00 mm 612.12 W/m2
11:59 32.0 °C 27.0 °C 1007.7 hPa SE 5 km/h 8 km/h 77% 0.00 mm 579.06 W/m2
12:04 32.0 °C 27.0 °C 1007.5 hPa SE 7 km/h 8 km/h 76% 0.00 mm 637.37 W/m2
12:09 32.0 °C 27.0 °C 1007.4 hPa NNE 3 km/h 4 km/h 74% 0.00 mm 635.61 W/m2
12:14 32.0 °C 27.0 °C 1007.5 hPa SE 10 km/h 16 km/h 74% 0.00 mm 499.96 W/m2
12:19 32.0 °C 26.0 °C 1007.1 hPa SE 10 km/h 12 km/h 75% 0.00 mm 592.98 W/m2
12:24 33.0 °C 27.0 °C 1007.1 hPa ESE 5 km/h 8 km/h 74% 0.00 mm 593.55 W/m2
12:29 33.0 °C 27.0 °C 1007.1 hPa SSE 3 km/h 4 km/h 71% 0.00 mm 539.77 W/m2
12:34 33.0 °C 27.0 °C 1007.1 hPa WNW 3 km/h 8 km/h 71% 0.00 mm 537.00 W/m2
12:39 33.0 °C 27.0 °C 1007.1 hPa WSW 6 km/h 8 km/h 71% 0.00 mm 487.02 W/m2
12:44 33.0 °C 27.0 °C 1007.0 hPa SSE 6 km/h 8 km/h 70% 0.00 mm 391.25 W/m2
12:49 33.0 °C 26.0 °C 1007.1 hPa South 6 km/h 8 km/h 70% 0.00 mm 390.91 W/m2
12:54 32.0 °C 26.0 °C 1006.8 hPa South 15 km/h 20 km/h 71% 0.00 mm 363.19 W/m2
12:59 32.0 °C 26.0 °C 1006.8 hPa South 10 km/h 16 km/h 72% 0.00 mm 333.70 W/m2
13:04 31.0 °C 26.0 °C 1006.7 hPa South 12 km/h 12 km/h 72% 0.00 mm 355.41 W/m2
13:09 32.0 °C 26.0 °C 1006.7 hPa South 12 km/h 16 km/h 72% 0.00 mm 376.64 W/m2
13:14 32.0 °C 26.0 °C 1006.6 hPa South 10 km/h 12 km/h 72% 0.00 mm 292.45 W/m2
13:19 31.0 °C 26.0 °C 1006.6 hPa South 9 km/h 12 km/h 73% 0.00 mm 286.60 W/m2
13:24 31.0 °C 26.0 °C 1006.6 hPa South 6 km/h 8 km/h 73% 0.00 mm 461.40 W/m2
13:29 32.0 °C 26.0 °C 1006.6 hPa SSW 9 km/h 12 km/h 73% 0.00 mm 571.13 W/m2
13:34 32.0 °C 26.0 °C 1006.6 hPa SSW 6 km/h 8 km/h 72% 0.00 mm 436.03 W/m2
13:39 32.0 °C 26.0 °C 1006.5 hPa SSW 4 km/h 8 km/h 72% 0.00 mm 565.85 W/m2
13:44 32.0 °C 26.0 °C 1006.4 hPa SSE 12 km/h 16 km/h 71% 0.00 mm 591.27 W/m2
13:49 33.0 °C 27.0 °C 1006.3 hPa South 5 km/h 8 km/h 71% 0.00 mm 595.92 W/m2
13:54 33.0 °C 27.0 °C 1006.3 hPa NW 8 km/h 12 km/h 70% 0.00 mm 612.78 W/m2
13:59 33.0 °C 27.0 °C 1006.1 hPa South 8 km/h 12 km/h 70% 0.00 mm 614.71 W/m2
14:04 34.0 °C 27.0 °C 1006.4 hPa SSE 8 km/h 12 km/h 68% 0.00 mm 619.63 W/m2
14:09 34.0 °C 27.0 °C 1006.1 hPa South 5 km/h 8 km/h 68% 0.00 mm 622.17 W/m2
14:14 34.0 °C 27.0 °C 1006.1 hPa SSW 6 km/h 8 km/h 69% 0.00 mm 540.11 W/m2
14:19 34.0 °C 27.0 °C 1006.1 hPa South 5 km/h 8 km/h 69% 0.00 mm 525.36 W/m2
14:24 33.0 °C 27.0 °C 1006.1 hPa South 10 km/h 16 km/h 69% 0.00 mm 538.74 W/m2
14:29 33.0 °C 26.0 °C 1006.1 hPa SSE 10 km/h 16 km/h 69% 0.00 mm 555.01 W/m2
14:34 33.0 °C 26.0 °C 1006.1 hPa South 10 km/h 12 km/h 70% 0.00 mm 562.42 W/m2
14:39 34.0 °C 27.0 °C 1006.4 hPa WSW 2 km/h 4 km/h 68% 0.00 mm 548.53 W/m2
14:44 33.0 °C 27.0 °C 1006.1 hPa SSW 13 km/h 16 km/h 71% 0.00 mm 388.29 W/m2
14:49 32.0 °C 26.0 °C 1006.4 hPa South 13 km/h 16 km/h 71% 0.00 mm 434.07 W/m2
14:54 33.0 °C 26.0 °C 1006.1 hPa South 12 km/h 16 km/h 71% 0.00 mm 409.55 W/m2
14:59 32.0 °C 26.0 °C 1006.1 hPa South 14 km/h 20 km/h 73% 0.00 mm 400.01 W/m2
15:09 32.0 °C 26.0 °C 1006.1 hPa SSW 8 km/h 12 km/h 73% 0.00 mm 436.22 W/m2
15:14 32.0 °C 27.0 °C 1005.8 hPa South 12 km/h 16 km/h 74% 0.00 mm 499.42 W/m2
15:19 32.0 °C 27.0 °C 1005.8 hPa South 10 km/h 16 km/h 74% 0.00 mm 524.50 W/m2
15:24 32.0 °C 27.0 °C 1005.8 hPa South 12 km/h 16 km/h 75% 0.00 mm 432.04 W/m2
15:29 32.0 °C 27.0 °C 1005.8 hPa South 9 km/h 12 km/h 76% 0.00 mm 322.69 W/m2
15:34 32.0 °C 27.0 °C 1005.8 hPa South 14 km/h 16 km/h 76% 0.00 mm 276.35 W/m2
15:39 32.0 °C 27.0 °C 1005.8 hPa South 13 km/h 16 km/h 77% 0.00 mm 394.19 W/m2
15:44 32.0 °C 27.0 °C 1005.8 hPa South 16 km/h 20 km/h 78% 0.00 mm 430.77 W/m2
15:49 31.0 °C 27.0 °C 1006.1 hPa SSE 22 km/h 32 km/h 78% 0.00 mm 441.78 W/m2
15:54 31.0 °C 27.0 °C 1005.8 hPa SSE 16 km/h 20 km/h 80% 0.00 mm 445.37 W/m2
15:59 31.0 °C 26.0 °C 1006.1 hPa SSE 18 km/h 24 km/h 79% 0.00 mm 428.42 W/m2
16:04 31.0 °C 26.0 °C 1005.8 hPa SSE 13 km/h 16 km/h 79% 0.00 mm 399.01 W/m2
16:09 31.0 °C 26.0 °C 1006.1 hPa SSE 19 km/h 24 km/h 79% 0.00 mm 404.32 W/m2
16:14 30.0 °C 26.0 °C 1006.1 hPa SSE 17 km/h 20 km/h 80% 0.00 mm 372.26 W/m2
16:19 30.0 °C 26.0 °C 1006.1 hPa SSE 18 km/h 24 km/h 79% 0.00 mm 382.08 W/m2
16:24 31.0 °C 26.0 °C 1006.1 hPa SSE 21 km/h 24 km/h 78% 0.00 mm 398.81 W/m2
16:34 30.0 °C 26.0 °C 1006.1 hPa SSE 19 km/h 20 km/h 78% 0.00 mm 310.61 W/m2
16:39 30.0 °C 26.0 °C 1005.8 hPa SSE 15 km/h 20 km/h 79% 0.00 mm 146.60 W/m2
16:44 30.0 °C 26.0 °C 1006.1 hPa SSE 15 km/h 20 km/h 79% 0.00 mm 237.52 W/m2
16:49 30.0 °C 26.0 °C 1006.1 hPa SSE 15 km/h 20 km/h 78% 0.00 mm 234.93 W/m2
16:59 30.0 °C 26.0 °C 1006.1 hPa SSE 18 km/h 24 km/h 81% 0.00 mm 113.18 W/m2
17:04 29.0 °C 26.0 °C 1006.4 hPa SSE 20 km/h 24 km/h 82% 0.00 mm 182.18 W/m2
17:09 30.0 °C 26.0 °C 1006.4 hPa SSE 22 km/h 24 km/h 81% 0.00 mm 148.54 W/m2
17:14 29.0 °C 26.0 °C 1006.4 hPa SSE 14 km/h 20 km/h 82% 0.00 mm 100.24 W/m2
17:19 29.0 °C 26.0 °C 1006.4 hPa South 10 km/h 16 km/h 83% 0.00 mm 59.53 W/m2
17:24 29.0 °C 26.0 °C 1006.8 hPa South 11 km/h 16 km/h 83% 0.00 mm 46.80 W/m2
17:29 29.0 °C 26.0 °C 1006.8 hPa SSE 19 km/h 24 km/h 84% 0.00 mm 39.15 W/m2
17:34 28.0 °C 26.0 °C 1006.8 hPa SSE 25 km/h 28 km/h 85% 0.00 mm 32.96 W/m2
17:39 28.0 °C 25.0 °C 1006.4 hPa South 19 km/h 24 km/h 84% 0.00 mm 30.68 W/m2
17:44 28.0 °C 25.0 °C 1006.8 hPa SSE 16 km/h 20 km/h 83% 0.00 mm 32.87 W/m2
17:49 28.0 °C 25.0 °C 1006.8 hPa South 15 km/h 20 km/h 84% 0.00 mm 32.31 W/m2
17:54 28.0 °C 25.0 °C 1006.8 hPa SSE 12 km/h 20 km/h 84% 0.00 mm 29.60 W/m2
17:59 28.0 °C 25.0 °C 1007.0 hPa SE 8 km/h 12 km/h 83% 0.00 mm 28.55 W/m2
18:03 28.0 °C 25.0 °C 1007.0 hPa Calm   4 km/h 84% 0.00 mm 24.63 W/m2
18:09 28.0 °C 26.0 °C 1007.1 hPa SE 22 km/h 24 km/h 86% 0.00 mm 21.39 W/m2
18:14 28.0 °C 26.0 °C 1007.2 hPa SSE 18 km/h 24 km/h 86% 0.00 mm 10.05 W/m2
18:19 28.0 °C 26.0 °C 1007.2 hPa SE 9 km/h 12 km/h 86% 0.00 mm 4.89 W/m2
18:24 28.0 °C 26.0 °C 1007.5 hPa SE 10 km/h 16 km/h 87% 0.00 mm 0.18 W/m2
18:29 28.0 °C 25.0 °C 1007.6 hPa SE 15 km/h 16 km/h 88% 0.00 mm 0.00 W/m2
18:34 27.0 °C 25.0 °C 1007.6 hPa SE 18 km/h 24 km/h 89% 0.00 mm 0.00 W/m2
18:39 27.0 °C 25.0 °C 1007.7 hPa SE 13 km/h 16 km/h 91% 1.80 mm 0.00 W/m2
18:44 27.0 °C 26.0 °C 1007.8 hPa SE 7 km/h 8 km/h 92% 1.80 mm 0.00 W/m2
18:49 27.0 °C 26.0 °C 1007.8 hPa Calm     92% 1.80 mm 0.00 W/m2
18:54 27.0 °C 26.0 °C 1007.8 hPa Calm     93% 1.78 mm 0.00 W/m2
18:59 27.0 °C 26.0 °C 1007.8 hPa SE 7 km/h 12 km/h 93% 1.78 mm 0.00 W/m2
19:04 27.0 °C 26.0 °C 1008.1 hPa ESE 4 km/h 8 km/h 93% 1.78 mm 0.00 W/m2
19:09 27.0 °C 26.0 °C 1008.1 hPa SE 4 km/h 8 km/h 93% 0.00 mm 0.00 W/m2
19:14 27.0 °C 26.0 °C 1008.2 hPa Calm   4 km/h 93% 0.00 mm 0.00 W/m2
19:19 27.0 °C 26.0 °C 1008.4 hPa Calm     93% 0.00 mm 0.00 W/m2
19:24 27.0 °C 26.0 °C 1008.3 hPa Calm   4 km/h 93% 0.00 mm 0.00 W/m2
19:29 27.0 °C 26.0 °C 1008.6 hPa Calm     92% 0.00 mm 0.00 W/m2
19:34 27.0 °C 26.0 °C 1008.5 hPa Calm     92% 1.80 mm 0.00 W/m2
19:39 27.0 °C 26.0 °C 1008.5 hPa Calm     92% 1.80 mm 0.00 W/m2
19:44 27.0 °C 26.0 °C 1008.5 hPa Calm     93% 1.80 mm 0.00 W/m2
19:49 27.0 °C 26.0 °C 1008.6 hPa Calm     93% 0.00 mm 0.00 W/m2
19:54 27.0 °C 26.0 °C 1008.6 hPa Calm     93% 0.00 mm 0.00 W/m2
19:59 27.0 °C 26.0 °C 1008.6 hPa Calm     93% 0.00 mm 0.00 W/m2
20:04 27.0 °C 26.0 °C 1008.8 hPa Calm     93% 0.00 mm 0.00 W/m2
20:09 27.0 °C 26.0 °C 1009.0 hPa Calm     93% 0.00 mm 0.00 W/m2
20:14 27.0 °C 26.0 °C 1009.2 hPa Calm     94% 0.00 mm 0.00 W/m2
20:19 27.0 °C 26.0 °C 1009.2 hPa Calm     94% 0.00 mm 0.00 W/m2
20:24 27.0 °C 26.0 °C 1009.3 hPa Calm   4 km/h 94% 0.00 mm 0.00 W/m2
20:29 27.0 °C 26.0 °C 1009.3 hPa Calm     94% 1.80 mm 0.00 W/m2
20:34 27.0 °C 26.0 °C 1009.3 hPa Calm     94% 1.80 mm 0.00 W/m2
20:39 27.0 °C 26.0 °C 1009.3 hPa Calm     94% 3.61 mm 0.00 W/m2
20:44 27.0 °C 26.0 °C 1009.2 hPa Calm     95% 3.61 mm 0.00 W/m2
20:48 27.0 °C 26.0 °C 1009.1 hPa Calm   4 km/h 95% 3.61 mm 0.00 W/m2
20:54 26.0 °C 26.0 °C 1009.2 hPa East 1 km/h 4 km/h 95% 1.80 mm 0.00 W/m2
20:59 26.0 °C 25.0 °C 1009.1 hPa Calm     95% 1.80 mm 0.00 W/m2
21:04 26.0 °C 25.0 °C 1009.2 hPa Calm     95% 1.80 mm 0.00 W/m2
21:09 26.0 °C 26.0 °C 1009.1 hPa Calm     96% 0.00 mm 0.00 W/m2
21:14 26.0 °C 26.0 °C 1009.1 hPa Calm     96% 0.00 mm 0.00 W/m2
21:19 26.0 °C 26.0 °C 1009.1 hPa Calm     96% 0.00 mm 0.00 W/m2
21:22 26.0 °C 26.0 °C 1009.1 hPa Calm     96% 0.00 mm 0.00 W/m2
21:29 26.0 °C 25.0 °C 1009.1 hPa Calm     95% 0.00 mm 0.00 W/m2
21:34 26.0 °C 25.0 °C 1009.1 hPa Calm     95% 0.00 mm 0.00 W/m2
21:39 26.0 °C 26.0 °C 1009.1 hPa Calm     96% 0.00 mm 0.00 W/m2
21:44 26.0 °C 25.0 °C 1009.1 hPa Calm     95% 1.78 mm 0.00 W/m2
21:49 26.0 °C 25.0 °C 1009.1 hPa Calm     95% 1.78 mm 0.00 W/m2
21:54 26.0 °C 25.0 °C 1009.5 hPa Calm     95% 1.78 mm 0.00 W/m2
21:59 26.0 °C 25.0 °C 1009.5 hPa Calm     95% 0.00 mm 0.00 W/m2
22:04 26.0 °C 25.0 °C 1009.5 hPa Calm   4 km/h 95% 0.00 mm 0.00 W/m2
22:09 26.0 °C 25.0 °C 1009.5 hPa Calm     95% 0.00 mm 0.00 W/m2
22:14 26.0 °C 25.0 °C 1009.1 hPa Calm     95% 0.00 mm 0.00 W/m2
22:19 26.0 °C 25.0 °C 1009.1 hPa Calm     95% 0.00 mm 0.00 W/m2
22:24 26.0 °C 25.0 °C 1009.5 hPa Calm     94% 0.00 mm 0.00 W/m2
22:29 26.0 °C 25.0 °C 1009.5 hPa Calm     94% 0.00 mm 0.00 W/m2
22:34 26.0 °C 25.0 °C 1009.5 hPa Calm     94% 0.00 mm 0.00 W/m2
22:39 26.0 °C 25.0 °C 1009.5 hPa Calm     94% 0.00 mm 0.00 W/m2
22:44 26.0 °C 25.0 °C 1009.5 hPa Calm     94% 0.00 mm 0.00 W/m2
22:49 26.0 °C 25.0 °C 1009.5 hPa Calm     94% 0.00 mm 0.00 W/m2
22:54 27.0 °C 25.0 °C 1009.5 hPa Calm     94% 0.00 mm 0.00 W/m2
22:59 26.0 °C 25.0 °C 1009.5 hPa Calm     93% 0.00 mm 0.00 W/m2
23:04 26.0 °C 25.0 °C 1009.1 hPa Calm     93% 0.00 mm 0.00 W/m2
23:09 26.0 °C 25.0 °C 1009.1 hPa Calm     94% 0.00 mm 0.00 W/m2
23:14 26.0 °C 25.0 °C 1009.1 hPa Calm     94% 0.00 mm 0.00 W/m2
23:19 26.0 °C 25.0 °C 1009.1 hPa Calm     93% 0.00 mm 0.00 W/m2
23:24 26.0 °C 25.0 °C 1009.5 hPa Calm     93% 0.00 mm 0.00 W/m2
23:29 26.0 °C 25.0 °C 1009.1 hPa Calm     92% 0.00 mm 0.00 W/m2
23:34 27.0 °C 25.0 °C 1009.1 hPa Calm     92% 0.00 mm 0.00 W/m2
23:39 27.0 °C 25.0 °C 1009.1 hPa Calm     92% 0.00 mm 0.00 W/m2
23:44 27.0 °C 25.0 °C 1009.1 hPa Calm     92% 0.00 mm 0.00 W/m2
23:49 27.0 °C 25.0 °C 1009.1 hPa Calm     91% 0.00 mm 0.00 W/m2
23:54 26.0 °C 25.0 °C 1009.1 hPa Calm     91% 0.00 mm 0.00 W/m2
23:59 27.0 °C 25.0 °C 1009.1 hPa Calm     91% 0.00 mm 0.00 W/m2
PIMOHWEATHER Philippines
Compliments of Weather Underground - 2 mb